Location: Unspecified
(52.4292°N, 19.3359°E)
Time: 15:48:28
(UTC+01:00)

A-11 Canister half - Pass Details

Date: 18 October 2025
Orbit: 1526 x 1682 km, 47.3° (Epoch: 13 November)

Event Time Altitude Azimuth Distance (km) Brightness Sun altitude
Exits shadow 02:18:11 29° 114° (ESE) 2,520 10.1 -41.7°
Drops below altitude 10° 02:23:28 10° 84° (E) 3,697 11.4 -41.2°
Sets 02:26:51 0° 75° (ENE) 4,686 12.2 -40.9°
